QPF
0.02 0.02 0.02 0.02 0.02 0.02 0.01 0.01 0.01 0.02 0.02 0.02 0.02 0.02 0.03 0.03 0.03 0.04 0.05 0.05 0.05 0.05 0.05 0.05 0.04 0.03 0.03 0.03 0.04 0.03 0.02 0.02 0.02 0.02 0.02 0.02 0.03 0.02 0.02 0.01 0.01 0.02 0.02
0.01 0.02 0.02 0.02 0.02 0.02 0.02 0.01 0.01 0.01 0.01 0.01 0.02 0.02 0.03 0.03 0.03 0.03 0.03 0.04 0.04 0.04 0.04 0.04 0.04 0.04 0.03 0.03 0.03 0.03 0.03 0.02 0.02 0.02 0.02 0.02 0.02 0.02 0.01 0.02 0.02 0.02 0.01
0.01 0.01 0.01 0.02 0.02 0.02 0.01 0.01 0.01 0.01 0.01 0.01 0.01 0.01 0.02 0.04 0.05 0.04 0.03 0.03 0.02 0.03 0.03 0.04 0.04 0.04 0.04 0.04 0.03 0.03 0.03 0.03 0.03 0.02 0.02 0.02 0.02 0.02 0.02 0.03 0.03 0.02 0.02
0.01 0.01 0.01 0.01 0.01 0.01 0.02 0.02 0.02 0.02 0.02 0.02 0.02 0.01 0.01 0.02 0.02 0.04 0.04 0.04 0.03 0.03 0.03 0.03 0.04 0.04 0.04 0.03 0.03 0.03 0.03 0.04 0.04 0.04 0.04 0.03 0.02 0.02 0.02 0.03 0.03 0.02 0.02
0.01 0.01 0.01 0.01 0.01 0.01 0.01 0.02 0.02 0.02 0.02 0.02 0.02 0.02 0.02 0.01 0.01 0.02 0.02 0.03 0.03 0.03 0.03 0.03 0.03 0.04 0.04 0.03 0.03 0.03 0.04 0.04 0.04 0.04 0.04 0.04 0.03 0.03 0.02 0.02 0.02 0.02 0.02
0.00 0.00 0.01 0.01 0.01 0.01 0.01 0.02 0.03 0.03 0.03 0.03 0.03 0.03 0.03 0.03 0.03 0.03 0.02 0.02 0.02 0.02 0.02 0.02 0.03 0.03 0.03 0.03 0.03 0.03 0.03 0.04 0.04 0.04 0.04 0.03 0.03 0.02 0.02 0.02 0.03 0.03 0.03
0.00 0.00 0.00 0.00 0.01 0.01 0.01 0.02 0.03 0.04 0.05 0.05 0.04 0.04 0.04 0.04 0.04 0.04 0.03 0.03 0.03 0.03 0.02 0.02 0.02 0.02 0.02 0.02 0.03 0.03 0.03 0.03 0.04 0.04 0.04 0.04 0.03 0.03 0.03 0.03 0.04 0.03 0.03
0.00 0.00 0.00 0.00 0.00 0.00 0.00 0.01 0.02 0.03 0.04 0.06 0.06 0.06 0.06 0.05 0.05 0.04 0.04 0.03 0.03 0.04 0.03 0.03 0.02 0.02 0.02 0.02 0.02 0.02 0.02 0.02 0.03 0.03 0.03 0.03 0.03 0.04 0.04 0.05 0.04 0.04 0.04
0.00 0.00 0.00 0.00 0.00 0.00 0.00 0.00 0.00 0.01 0.02 0.03 0.04 0.05 0.06 0.06 0.06 0.05 0.05 0.05 0.05 0.04 0.03 0.03 0.02 0.02 0.02 0.02 0.02 0.02 0.02 0.02 0.02 0.03 0.03 0.03 0.03 0.03 0.03 0.04 0.05 0.05 0.04
0.00 0.00 0.00 0.00 0.00 0.00 0.00 0.00 0.00 0.01 0.01 0.01 0.02 0.03 0.03 0.03 0.04 0.04 0.05 0.06 0.05 0.04 0.03 0.02 0.02 0.02 0.02 0.02 0.02 0.02 0.02 0.01 0.01 0.02 0.02 0.02 0.03 0.03 0.03 0.03 0.03 0.03 0.03
0.00 0.00 0.00 0.00 0.00 0.01 0.01 0.01 0.01 0.01 0.01 0.01 0.01 0.02 0.02 0.02 0.02 0.02 0.03 0.04 0.04 0.03 0.03 0.03 0.03 0.03 0.02 0.02 0.02 0.02 0.02 0.02 0.02 0.01 0.01 0.01 0.02 0.02 0.02 0.02 0.03 0.03 0.03
0.01 0.00 0.00 0.00 0.01 0.01 0.01 0.01 0.01 0.01 0.01 0.01 0.02 0.02 0.02 0.02 0.02 0.02 0.02 0.02 0.02 0.03 0.03 0.03 0.03 0.03 0.03 0.02 0.02 0.02 0.02 0.02 0.02 0.02 0.02 0.02 0.02 0.01 0.01 0.02 0.02 0.03 0.03
0.01 0.01 0.01 0.01 0.01 0.01 0.01 0.01 0.01 0.01 0.01 0.01 0.02 0.02 0.01 0.01 0.02 0.02 0.02 0.02 0.02 0.02 0.02 0.03 0.03 0.03 0.03 0.03 0.03 0.03 0.03 0.02 0.02 0.02 0.02 0.02 0.01 0.01 0.01 0.01 0.02 0.02 0.03
0.01 0.01 0.01 0.01 0.01 0.01 0.01 0.01 0.01 0.01 0.01 0.01 0.01 0.01 0.01 0.01 0.02 0.02 0.02 0.02 0.02 0.02 0.02 0.03 0.03 0.03 0.02 0.02 0.02 0.02 0.02 0.02 0.02 0.02 0.02 0.01 0.02 0.02 0.02 0.02 0.02 0.02 0.03
0.01 0.01 0.01 0.01 0.01 0.01 0.01 0.01 0.01 0.01 0.01 0.01 0.01 0.01 0.01 0.01 0.01 0.02 0.02 0.02 0.02 0.03 0.03 0.03 0.03 0.02 0.02 0.02 0.02 0.02 0.02 0.02 0.02 0.02 0.02 0.02 0.02 0.02 0.02 0.02 0.02 0.02 0.02
0.01 0.01 0.01 0.01 0.00 0.00 0.00 0.00 0.01 0.01 0.01 0.01 0.01 0.01 0.02 0.02 0.02 0.02 0.02 0.02 0.02 0.02 0.02 0.02 0.02 0.01 0.01 0.01 0.01 0.01 0.01 0.01 0.01 0.02 0.02 0.02 0.02 0.02 0.02 0.02 0.02 0.02 0.02
0.01 0.01 0.01 0.01 0.01 0.01 0.01 0.01 0.01 0.01 0.01 0.01 0.01 0.01 0.02 0.02 0.02 0.03 0.03 0.03 0.03 0.02 0.02 0.01 0.01 0.01 0.01 0.01 0.01 0.01 0.01 0.01 0.01 0.02 0.02 0.01 0.02 0.02 0.02 0.02 0.02 0.02 0.02
0.01 0.01 0.01 0.01 0.01 0.01 0.01 0.01 0.01 0.01 0.01 0.01 0.01 0.01 0.01 0.02 0.02 0.03 0.03 0.03 0.03 0.02 0.01 0.01 0.01 0.01 0.01 0.01 0.01 0.01 0.01 0.01 0.01 0.01 0.01 0.01 0.01 0.02 0.02 0.02 0.02 0.02 0.02
0.01 0.01 0.01 0.01 0.01 0.01 0.01 0.01 0.01 0.01 0.01 0.01 0.01 0.01 0.01 0.01 0.02 0.02 0.02 0.02 0.01 0.01 0.01 0.01 0.01 0.01 0.01 0.01 0.01 0.01 0.01 0.02 0.01 0.01 0.01 0.01 0.01 0.02 0.02 0.02 0.02 0.02 0.02
0.01 0.01 0.01 0.01 0.01 0.01 0.01 0.01 0.01 0.01 0.01 0.01 0.01 0.01 0.01 0.02 0.02 0.02 0.02 0.01 0.01 0.01 0.01 0.01 0.01 0.01 0.02 0.02 0.02 0.02 0.02 0.02 0.01 0.01 0.01 0.02 0.02 0.02 0.02 0.02 0.02 0.02 0.02
0.01 0.01 0.01 0.01 0.01 0.01 0.01 0.01 0.01 0.01 0.01 0.01 0.01 0.01 0.02 0.02 0.02 0.01 0.01 0.01 0.01 0.01 0.01 0.02 0.02 0.02 0.02 0.02 0.02 0.02 0.02 0.02 0.01 0.01 0.01 0.01 0.02 0.02 0.02 0.02 0.02 0.02 0.02
0.02 0.02 0.02 0.02 0.01 0.01 0.01 0.01 0.01 0.01 0.01 0.01 0.01 0.02 0.02 0.02 0.02 0.02 0.01 0.01 0.01 0.01 0.02 0.02 0.02 0.02 0.02 0.01 0.01 0.02 0.02 0.01 0.01 0.01 0.01 0.01 0.01 0.01 0.02 0.02 0.02 0.02 0.02
0.03 0.03 0.02 0.02 0.02 0.02 0.02 0.01 0.01 0.01 0.01 0.01 0.02 0.02 0.02 0.02 0.02 0.02 0.01 0.01 0.01 0.02 0.02 0.02 0.02 0.02 0.02 0.01 0.01 0.01 0.01 0.01 0.01 0.01 0.01 0.01 0.01 0.01 0.01 0.02 0.02 0.02 0.02
0.03 0.03 0.02 0.02 0.02 0.02 0.02 0.01 0.01 0.01 0.02 0.02 0.02 0.02 0.02 0.02 0.02 0.02 0.02 0.02 0.02 0.02 0.02 0.02 0.02 0.02 0.02 0.01 0.02 0.01 0.01 0.01 0.01 0.01 0.01 0.01 0.01 0.01 0.01 0.01 0.02 0.02 0.02
0.03 0.02 0.02 0.02 0.02 0.02 0.02 0.01 0.01 0.01 0.02 0.02 0.02 0.02 0.02 0.02 0.02 0.02 0.02 0.02 0.02 0.02 0.02 0.02 0.02 0.02 0.02 0.02 0.01 0.01 0.01 0.01 0.02 0.02 0.02 0.02 0.01 0.01 0.01 0.01 0.01 0.01 0.02
0.02 0.02 0.02 0.02 0.01 0.01 0.01 0.01 0.01 0.01 0.02 0.02 0.02 0.02 0.02 0.02 0.02 0.02 0.02 0.02 0.02 0.02 0.02 0.02 0.02 0.02 0.02 0.02 0.01 0.01 0.01 0.01 0.02 0.02 0.02 0.02 0.01 0.01 0.01 0.01 0.01 0.01 0.01
MSLP
1033.61 1033.50 1033.39 1033.27 1033.14 1033.00 1032.84 1032.67 1032.49 1032.29 1032.07 1031.85 1031.62 1031.41 1031.22 1031.07 1030.97 1030.93 1030.93 1030.95 1030.98 1030.97 1030.90 1030.75 1030.51 1030.20 1029.85 1029.48 1029.15 1028.89 1028.72 1028.64 1028.64 1028.68 1028.72 1028.69 1028.56 1028.29 1027.88 1027.35 1026.72 1026.03 1025.34
1034.20 1034.12 1034.01 1033.89 1033.76 1033.61 1033.46 1033.31 1033.14 1032.96 1032.77 1032.58 1032.38 1032.19 1032.02 1031.90 1031.83 1031.80 1031.83 1031.88 1031.92 1031.93 1031.88 1031.75 1031.53 1031.23 1030.90 1030.55 1030.24 1030.00 1029.85 1029.78 1029.79 1029.82 1029.84 1029.78 1029.61 1029.29 1028.83 1028.23 1027.54 1026.80 1026.06
1034.68 1034.62 1034.53 1034.42 1034.29 1034.16 1034.03 1033.89 1033.75 1033.59 1033.43 1033.26 1033.08 1032.90 1032.75 1032.64 1032.58 1032.57 1032.61 1032.67 1032.74 1032.77 1032.74 1032.64 1032.45 1032.19 1031.89 1031.58 1031.30 1031.08 1030.95 1030.89 1030.90 1030.93 1030.93 1030.85 1030.65 1030.30 1029.80 1029.18 1028.46 1027.69 1026.92
1035.03 1034.99 1034.92 1034.82 1034.71 1034.60 1034.49 1034.39 1034.28 1034.16 1034.02 1033.87 1033.71 1033.55 1033.41 1033.30 1033.23 1033.23 1033.27 1033.34 1033.42 1033.48 1033.48 1033.41 1033.26 1033.05 1032.78 1032.51 1032.27 1032.08 1031.96 1031.92 1031.93 1031.95 1031.94 1031.85 1031.64 1031.28 1030.78 1030.16 1029.44 1028.67 1027.90
1035.26 1035.24 1035.18 1035.09 1035.01 1034.92 1034.85 1034.78 1034.71 1034.64 1034.54 1034.43 1034.29 1034.14 1034.00 1033.88 1033.81 1033.79 1033.82 1033.90 1033.98 1034.05 1034.08 1034.05 1033.94 1033.77 1033.55 1033.32 1033.11 1032.95 1032.86 1032.82 1032.83 1032.85 1032.84 1032.75 1032.55 1032.22 1031.74 1031.15 1030.47 1029.73 1028.99
1035.39 1035.37 1035.31 1035.25 1035.18 1035.13 1035.10 1035.09 1035.07 1035.05 1035.00 1034.92 1034.81 1034.67 1034.53 1034.41 1034.33 1034.29 1034.31 1034.37 1034.45 1034.52 1034.57 1034.56 1034.49 1034.36 1034.19 1034.00 1033.83 1033.69 1033.61 1033.59 1033.61 1033.64 1033.64 1033.57 1033.40 1033.10 1032.68 1032.15 1031.52 1030.85 1030.15
1035.43 1035.41 1035.36 1035.31 1035.28 1035.27 1035.28 1035.32 1035.37 1035.40 1035.41 1035.37 1035.29 1035.17 1035.04 1034.91 1034.81 1034.75 1034.74 1034.78 1034.84 1034.92 1034.97 1034.98 1034.94 1034.85 1034.72 1034.57 1034.43 1034.32 1034.26 1034.25 1034.28 1034.33 1034.35 1034.31 1034.18 1033.95 1033.60 1033.14 1032.60 1031.99 1031.35
1035.41 1035.39 1035.36 1035.33 1035.32 1035.35 1035.42 1035.52 1035.62 1035.72 1035.77 1035.78 1035.74 1035.64 1035.51 1035.37 1035.25 1035.17 1035.14 1035.15 1035.20 1035.26 1035.31 1035.34 1035.32 1035.26 1035.17 1035.06 1034.95 1034.87 1034.84 1034.85 1034.90 1034.96 1035.01 1035.02 1034.95 1034.78 1034.51 1034.14 1033.68 1033.15 1032.57
1035.36 1035.35 1035.32 1035.32 1035.34 1035.41 1035.53 1035.68 1035.84 1035.98 1036.09 1036.14 1036.12 1036.04 1035.92 1035.78 1035.65 1035.55 1035.50 1035.49 1035.52 1035.58 1035.64 1035.68 1035.68 1035.66 1035.60 1035.52 1035.45 1035.41 1035.40 1035.44 1035.50 1035.59 1035.68 1035.72 1035.70 1035.61 1035.41 1035.12 1034.74 1034.29 1033.77
1035.28 1035.28 1035.28 1035.29 1035.35 1035.45 1035.61 1035.80 1036.00 1036.18 1036.32 1036.40 1036.40 1036.34 1036.23 1036.10 1035.97 1035.87 1035.80 1035.79 1035.83 1035.89 1035.96 1036.02 1036.05 1036.06 1036.04 1036.01 1035.98 1035.97 1035.99 1036.04 1036.13 1036.24 1036.35 1036.43 1036.46 1036.42 1036.29 1036.07 1035.77 1035.38 1034.93
1035.19 1035.21 1035.23 1035.26 1035.34 1035.47 1035.65 1035.86 1036.08 1036.27 1036.43 1036.52 1036.53 1036.49 1036.39 1036.27 1036.15 1036.06 1036.02 1036.02 1036.08 1036.16 1036.26 1036.36 1036.44 1036.49 1036.52 1036.53 1036.54 1036.56 1036.60 1036.68 1036.78 1036.91 1037.03 1037.14 1037.20 1037.20 1037.12 1036.96 1036.72 1036.40 1036.00
1035.11 1035.15 1035.18 1035.23 1035.32 1035.46 1035.64 1035.84 1036.05 1036.24 1036.38 1036.46 1036.47 1036.43 1036.34 1036.24 1036.15 1036.09 1036.08 1036.13 1036.24 1036.38 1036.53 1036.69 1036.82 1036.94 1037.02 1037.07 1037.12 1037.17 1037.24 1037.33 1037.44 1037.56 1037.69 1037.81 1037.88 1037.91 1037.87 1037.75 1037.56 1037.30 1036.95
1035.08 1035.11 1035.14 1035.19 1035.27 1035.40 1035.56 1035.73 1035.91 1036.05 1036.15 1036.20 1036.19 1036.13 1036.05 1035.97 1035.91 1035.90 1035.96 1036.08 1036.25 1036.47 1036.70 1036.94 1037.15 1037.33 1037.47 1037.59 1037.67 1037.76 1037.84 1037.94 1038.05 1038.17 1038.30 1038.40 1038.49 1038.52 1038.51 1038.43 1038.28 1038.06 1037.77
1035.11 1035.12 1035.14 1035.17 1035.22 1035.31 1035.43 1035.54 1035.65 1035.73 1035.76 1035.75 1035.69 1035.61 1035.52 1035.45 1035.43 1035.48 1035.60 1035.80 1036.07 1036.38 1036.71 1037.04 1037.34 1037.61 1037.82 1038.00 1038.13 1038.25 1038.36 1038.46 1038.57 1038.69 1038.80 1038.91 1038.98 1039.03 1039.03 1038.98 1038.87 1038.69 1038.45
1035.24 1035.21 1035.18 1035.17 1035.19 1035.22 1035.26 1035.30 1035.32 1035.30 1035.24 1035.14 1035.02 1034.88 1034.77 1034.71 1034.72 1034.82 1035.01 1035.30 1035.66 1036.07 1036.51 1036.94 1037.34 1037.69 1037.99 1038.23 1038.42 1038.59 1038.72 1038.85 1038.97 1039.08 1039.20 1039.30 1039.38 1039.43 1039.45 1039.42 1039.35 1039.22 1039.03
1035.46 1035.37 1035.29 1035.23 1035.18 1035.15 1035.10 1035.05 1034.95 1034.82 1034.65 1034.45 1034.23 1034.03 1033.87 1033.79 1033.81 1033.94 1034.19 1034.55 1035.00 1035.50 1036.04 1036.57 1037.07 1037.51 1037.90 1038.22 1038.49 1038.71 1038.89 1039.05 1039.20 1039.34 1039.46 1039.58 1039.67 1039.74 1039.79 1039.79 1039.75 1039.67 1039.52
1035.77 1035.61 1035.47 1035.34 1035.23 1035.11 1034.98 1034.82 1034.61 1034.36 1034.06 1033.74 1033.42 1033.13 1032.91 1032.79 1032.79 1032.93 1033.20 1033.61 1034.12 1034.70 1035.32 1035.93 1036.52 1037.06 1037.54 1037.95 1038.30 1038.59 1038.84 1039.07 1039.26 1039.45 1039.61 1039.76 1039.89 1040.00 1040.07 1040.11 1040.12 1040.07 1039.96
1036.11 1035.89 1035.69 1035.50 1035.32 1035.13 1034.91 1034.65 1034.33 1033.95 1033.53 1033.08 1032.65 1032.26 1031.96 1031.78 1031.74 1031.85 1032.13 1032.55 1033.09 1033.72 1034.39 1035.08 1035.74 1036.36 1036.93 1037.43 1037.87 1038.25 1038.59 1038.89 1039.17 1039.42 1039.65 1039.86 1040.04 1040.19 1040.32 1040.40 1040.44 1040.43 1040.36
1036.45 1036.18 1035.93 1035.69 1035.46 1035.20 1034.91 1034.55 1034.13 1033.64 1033.10 1032.54 1031.99 1031.50 1031.11 1030.85 1030.75 1030.82 1031.06 1031.47 1032.01 1032.65 1033.34 1034.07 1034.78 1035.47 1036.11 1036.70 1037.23 1037.71 1038.15 1038.55 1038.92 1039.26 1039.57 1039.86 1040.10 1040.32 1040.49 1040.62 1040.71 1040.73 1040.70
1036.75 1036.44 1036.16 1035.90 1035.62 1035.32 1034.96 1034.53 1034.02 1033.44 1032.80 1032.14 1031.49 1030.91 1030.43 1030.08 1029.91 1029.92 1030.11 1030.47 1030.97 1031.59 1032.28 1033.01 1033.75 1034.48 1035.18 1035.83 1036.45 1037.02 1037.56 1038.05 1038.52 1038.96 1039.36 1039.72 1040.04 1040.32 1040.55 1040.73 1040.86 1040.92 1040.92
1036.98 1036.67 1036.38 1036.10 1035.80 1035.46 1035.06 1034.57 1034.00 1033.34 1032.63 1031.89 1031.17 1030.51 1029.95 1029.53 1029.29 1029.23 1029.35 1029.65 1030.10 1030.67 1031.33 1032.03 1032.77 1033.50 1034.23 1034.92 1035.60 1036.24 1036.85 1037.43 1037.98 1038.50 1038.98 1039.42 1039.81 1040.15 1040.43 1040.66 1040.83 1040.93 1040.96
1037.16 1036.86 1036.58 1036.30 1035.99 1035.63 1035.19 1034.67 1034.05 1033.35 1032.59 1031.80 1031.03 1030.31 1029.71 1029.24 1028.94 1028.81 1028.87 1029.10 1029.49 1029.99 1030.58 1031.24 1031.93 1032.64 1033.35 1034.05 1034.74 1035.41 1036.07 1036.70 1037.30 1037.88 1038.42 1038.91 1039.36 1039.74 1040.07 1040.35 1040.55 1040.70 1040.77
1037.32 1037.04 1036.78 1036.50 1036.19 1035.81 1035.36 1034.81 1034.16 1033.44 1032.66 1031.85 1031.06 1030.33 1029.70 1029.21 1028.88 1028.71 1028.71 1028.88 1029.19 1029.61 1030.12 1030.70 1031.32 1031.97 1032.62 1033.29 1033.95 1034.60 1035.25 1035.89 1036.50 1037.10 1037.66 1038.18 1038.65 1039.08 1039.45 1039.75 1040.00 1040.19 1040.32
1037.48 1037.24 1036.99 1036.72 1036.40 1036.02 1035.55 1034.98 1034.33 1033.60 1032.82 1032.02 1031.25 1030.53 1029.92 1029.43 1029.09 1028.90 1028.86 1028.97 1029.21 1029.55 1029.97 1030.45 1030.97 1031.51 1032.08 1032.66 1033.24 1033.83 1034.43 1035.02 1035.61 1036.18 1036.73 1037.25 1037.73 1038.17 1038.56 1038.90 1039.20 1039.43 1039.61
1037.67 1037.46 1037.23 1036.96 1036.64 1036.24 1035.75 1035.18 1034.53 1033.81 1033.05 1032.29 1031.55 1030.88 1030.30 1029.84 1029.51 1029.32 1029.26 1029.33 1029.50 1029.75 1030.07 1030.44 1030.83 1031.26 1031.70 1032.16 1032.63 1033.12 1033.62 1034.13 1034.64 1035.16 1035.67 1036.16 1036.63 1037.07 1037.48 1037.85 1038.18 1038.47 1038.71
1037.88 1037.69 1037.46 1037.19 1036.86 1036.45 1035.95 1035.38 1034.74 1034.05 1033.32 1032.61 1031.93 1031.31 1030.79 1030.37 1030.07 1029.89 1029.82 1029.84 1029.95 1030.12 1030.33 1030.57 1030.84 1031.12 1031.42 1031.74 1032.07 1032.43 1032.81 1033.21 1033.63 1034.07 1034.51 1034.96 1035.41 1035.84 1036.26 1036.66 1037.03 1037.37 1037.66
Thickness
5436 5436 5436 5436 5436 5437 5437 5438 5438 5439 5440 5442 5443 5445 5446 5448 5449 5450 5450 5451 5451 5452 5452 5453 5453 5453 5453 5452 5452 5452 5451 5451 5451 5451 5449 5448 5447 5446 5445 5445 5445 5445 5445
5424 5424 5423 5424 5424 5425 5425 5425 5426 5427 5428 5429 5431 5432 5433 5435 5436 5437 5438 5438 5438 5439 5440 5439 5440 5440 5440 5440 5439 5439 5438 5437 5436 5436 5437 5435 5434 5433 5432 5432 5431 5431 5431
5411 5410 5410 5411 5412 5412 5412 5413 5413 5414 5415 5416 5418 5419 5420 5421 5422 5424 5425 5426 5426 5426 5427 5427 5427 5426 5426 5426 5426 5426 5425 5424 5423 5422 5422 5422 5420 5419 5418 5417 5417 5416 5416
5398 5398 5398 5398 5399 5399 5399 5400 5400 5401 5402 5403 5404 5405 5406 5407 5409 5410 5412 5412 5412 5413 5413 5413 5413 5413 5413 5413 5412 5412 5411 5410 5409 5408 5408 5407 5406 5405 5404 5403 5402 5402 5401
5384 5384 5384 5385 5385 5385 5386 5386 5387 5387 5388 5389 5390 5391 5392 5393 5395 5396 5398 5399 5399 5399 5399 5400 5400 5400 5400 5399 5399 5398 5397 5396 5395 5395 5394 5394 5393 5391 5390 5388 5387 5387 5387
5371 5370 5370 5371 5371 5371 5371 5371 5372 5373 5373 5374 5376 5377 5378 5379 5381 5382 5383 5385 5386 5386 5386 5386 5386 5386 5386 5386 5386 5386 5385 5383 5382 5382 5382 5382 5382 5379 5377 5375 5373 5373 5374
5357 5356 5356 5355 5356 5356 5356 5356 5357 5357 5358 5359 5360 5362 5363 5365 5366 5368 5369 5370 5370 5371 5372 5372 5372 5372 5371 5371 5372 5372 5372 5371 5371 5369 5369 5370 5369 5367 5364 5362 5360 5359 5360
5343 5341 5341 5340 5340 5340 5340 5341 5341 5341 5342 5343 5345 5346 5347 5349 5351 5352 5353 5354 5355 5356 5357 5357 5358 5358 5357 5357 5358 5358 5358 5357 5357 5357 5357 5358 5356 5354 5352 5351 5348 5346 5345
5329 5328 5326 5325 5324 5324 5325 5324 5325 5325 5326 5327 5328 5330 5331 5333 5334 5336 5337 5338 5340 5341 5342 5343 5343 5343 5344 5344 5344 5344 5344 5344 5343 5343 5343 5342 5342 5341 5339 5336 5334 5333 5333
5317 5315 5312 5311 5310 5310 5310 5309 5309 5310 5311 5312 5313 5313 5315 5317 5319 5320 5321 5323 5325 5326 5327 5328 5328 5329 5330 5330 5329 5329 5329 5330 5328 5328 5328 5327 5327 5326 5326 5325 5324 5321 5320
5304 5301 5299 5298 5296 5296 5295 5295 5295 5295 5296 5296 5298 5299 5300 5301 5303 5305 5306 5307 5309 5311 5312 5313 5314 5315 5316 5316 5316 5316 5316 5315 5314 5313 5312 5312 5312 5312 5312 5311 5310 5310 5309
5290 5288 5286 5285 5283 5282 5281 5281 5281 5280 5281 5282 5283 5285 5286 5287 5289 5291 5293 5294 5296 5297 5299 5300 5301 5302 5303 5303 5302 5303 5302 5300 5298 5298 5297 5298 5298 5298 5298 5297 5297 5297 5297
5277 5275 5274 5272 5271 5269 5268 5268 5267 5267 5268 5270 5271 5272 5274 5275 5276 5278 5280 5282 5283 5284 5285 5287 5288 5289 5289 5289 5289 5288 5287 5286 5284 5284 5284 5284 5284 5284 5283 5284 5284 5284 5284
5265 5263 5261 5260 5259 5257 5256 5256 5256 5256 5255 5257 5258 5260 5261 5262 5264 5266 5268 5270 5271 5272 5272 5273 5275 5275 5275 5275 5274 5273 5273 5272 5272 5272 5271 5270 5269 5269 5269 5271 5271 5270 5270
5253 5251 5249 5248 5247 5246 5245 5245 5245 5246 5246 5247 5248 5249 5250 5253 5255 5256 5257 5258 5260 5260 5260 5260 5260 5259 5259 5259 5259 5258 5258 5258 5257 5257 5256 5255 5255 5255 5255 5255 5256 5257 5256
5241 5240 5238 5237 5236 5235 5234 5234 5234 5235 5237 5238 5238 5239 5241 5244 5246 5247 5248 5249 5250 5250 5248 5247 5247 5246 5246 5246 5245 5245 5244 5244 5244 5243 5243 5242 5242 5242 5241 5242 5243 5244 5244
5230 5229 5228 5226 5225 5224 5223 5222 5224 5226 5226 5227 5229 5230 5232 5234 5235 5237 5238 5239 5239 5238 5235 5234 5234 5234 5233 5233 5232 5232 5231 5231 5231 5230 5230 5230 5230 5229 5228 5229 5230 5230 5230
5219 5218 5217 5216 5215 5213 5212 5211 5211 5212 5214 5216 5217 5219 5221 5223 5224 5225 5226 5227 5226 5224 5223 5222 5222 5221 5221 5220 5219 5219 5219 5218 5218 5218 5218 5218 5217 5216 5216 5216 5217 5218 5218
5209 5208 5206 5205 5204 5203 5202 5201 5201 5201 5202 5204 5206 5208 5209 5210 5212 5213 5214 5213 5213 5212 5211 5210 5210 5209 5209 5208 5207 5206 5206 5206 5206 5206 5206 5205 5205 5204 5204 5205 5205 5206 5206
5198 5197 5196 5194 5193 5192 5191 5191 5191 5191 5192 5194 5196 5197 5198 5199 5200 5202 5201 5201 5201 5201 5201 5200 5199 5199 5198 5197 5196 5195 5195 5194 5194 5194 5194 5194 5193 5192 5192 5193 5193 5194 5194
5187 5186 5185 5183 5182 5181 5181 5181 5182 5182 5183 5185 5186 5188 5190 5189 5190 5191 5191 5191 5191 5192 5191 5191 5190 5189 5188 5187 5186 5185 5185 5185 5184 5184 5183 5183 5182 5181 5181 5182 5183 5183 5182
5176 5175 5174 5173 5172 5171 5171 5172 5172 5173 5174 5175 5177 5178 5180 5179 5179 5180 5181 5181 5181 5181 5181 5181 5181 5180 5179 5178 5177 5176 5176 5175 5175 5174 5173 5172 5171 5171 5171 5171 5172 5172 5171
5166 5165 5163 5162 5162 5162 5161 5162 5162 5164 5165 5166 5167 5168 5168 5168 5168 5169 5170 5170 5171 5171 5172 5172 5172 5172 5171 5170 5169 5169 5168 5168 5167 5166 5164 5163 5162 5161 5161 5162 5162 5162 5161
5155 5154 5153 5152 5152 5152 5152 5153 5153 5155 5156 5157 5157 5158 5158 5158 5158 5159 5160 5160 5162 5162 5162 5163 5163 5163 5163 5162 5161 5160 5160 5159 5158 5157 5156 5155 5154 5153 5153 5153 5153 5153 5152
5145 5144 5143 5142 5142 5142 5143 5143 5144 5145 5146 5147 5147 5148 5148 5148 5148 5149 5150 5151 5152 5153 5153 5153 5154 5154 5154 5154 5153 5152 5151 5150 5149 5148 5147 5146 5145 5145 5144 5144 5144 5143 5142
5135 5134 5133 5133 5132 5133 5133 5134 5135 5135 5136 5137 5137 5137 5138 5139 5139 5140 5140 5141 5142 5143 5143 5144 5145 5145 5145 5145 5144 5144 5143 5142 5141 5140 5139 5138 5137 5136 5135 5135 5135 5134 5133